Weather History for KMMT - October, 2012

Change the Weather History Date:

Wednesday, October 10, 2012

  Actual Average Record
Temperature  
Mean Temperature 59 °F -  
Max Temperature 77 °F 74 °F 89 °F (2007)
Min Temperature 41 °F 53 °F 33 °F (2000)
Degree Days  
Heating Degree Days 6    
Growing Degree Days 9 (Base 50)    
Moisture  
Dew Point 44 °F    
Average Humidity 95    
Maximum Humidity 100    
Minimum Humidity 43    
Precipitation  
Precipitation 0.00 in - - ()
Sea Level Pressure  
Sea Level Pressure 30.11 in    
Wind  
Wind Speed 1 mph (NW)    
Max Wind Speed 16 mph    
Max Gust Speed 22 mph    
Visibility 3 miles    
Events Fog    
Averages and records for this station are not official NWS values.
T = Trace of Precipitation, MM = Missing Value Source: NWS Daily Summary

Daily Weather History Graph

Daily Weather History Graph

Search for Another Location

Airport or City:

Trip Planner

Search our weather history database for the weather conditions in past years. The results will help you decide how hot, cold, wet, or windy it might be!

Date:

Astronomy

Oct. 10, 2012 Rise Set
Actual Time 7:24 AM EDT 6:54 PM EDT
Civil Twilight 6:59 AM EDT 7:19 PM EDT
Nautical Twilight 6:30 AM EDT 7:48 PM EDT
Astronomical Twilight 6:01 AM EDT 8:17 PM EDT
Moon 2:13 AM EDT (10/10) 3:44 PM EDT (10/10)
Length of Visible Light 12h 20m
Length of Day
11h 30m
Waning Crescent, 27% of the Moon is Illuminated
Oct 10
Waning Crescent
Oct 15
New
Oct 21
First Quarter
Oct 29
Full
Nov 6
Last Quarter

Hourly Weather History & Observations

Time (EDT) Temp. Windchill Dew Point Humidity Pressure Visibility Wind Dir Wind Speed Gust Speed Precip Events Conditions
12:08 AM 46.4 °F - 46.4 °F 100% 30.13 in 0.8 mi Calm Calm - N/A   Clear
12:14 AM 46.4 °F - 46.4 °F 100% 30.13 in 1.0 mi Calm Calm - N/A   Clear
12:37 AM 42.8 °F - 42.8 °F 100% 30.13 in 1.2 mi Calm Calm - N/A   Clear
12:43 AM 44.6 °F - 44.6 °F 100% 30.14 in 1.0 mi Calm Calm - N/A   Clear
12:45 AM 44.6 °F - 44.6 °F 100% 30.13 in 1.0 mi Calm Calm - N/A   Mist
12:46 AM 44.6 °F - 44.6 °F 100% 30.13 in 1.2 mi Calm Calm - N/A   Partly Cloudy
12:49 AM 44.6 °F - 44.6 °F 100% 30.13 in 1.0 mi Calm Calm - N/A   Mist
12:52 AM 44.6 °F - 44.6 °F 100% 30.13 in 0.8 mi Calm Calm - N/A   Mist
12:55 AM 44.1 °F - 43.9 °F 99% 30.13 in 0.5 mi Calm Calm - N/A Fog Fog
12:58 AM 44.6 °F - 44.6 °F 100% 30.13 in 0.5 mi Calm Calm - N/A Fog Fog
1:01 AM 44.6 °F - 42.8 °F 93% 30.13 in 0.5 mi Calm Calm - N/A Fog Fog
1:05 AM 44.6 °F - 42.8 °F 93% 30.13 in 0.8 mi Calm Calm - N/A   Mist
1:14 AM 44.6 °F - 44.6 °F 100% 30.13 in 0.8 mi Calm Calm - N/A   Mist
1:16 AM 44.6 °F - 44.6 °F 100% 30.13 in 0.5 mi Calm Calm - N/A Fog Fog
1:26 AM 44.6 °F - 42.8 °F 93% 30.13 in 0.2 mi Calm Calm - N/A Fog Fog
1:38 AM 44.6 °F - 44.6 °F 100% 30.14 in 0.5 mi Calm Calm - N/A Fog Fog
1:47 AM 44.6 °F - 44.6 °F 100% 30.14 in 0.8 mi Calm Calm - N/A   Clear
1:48 AM 44.6 °F - 44.6 °F 100% 30.14 in 0.5 mi Calm Calm - N/A Fog Fog
1:55 AM 44.2 °F - 43.9 °F 99% 30.13 in 0.5 mi Calm Calm - N/A Fog Fog
2:19 AM 42.8 °F - 42.8 °F 100% 30.14 in 0.2 mi Calm Calm - N/A Fog Fog
2:28 AM 42.8 °F - 42.8 °F 100% 30.13 in 0.5 mi Calm Calm - N/A Fog Fog
2:30 AM 42.8 °F - 42.8 °F 100% 30.13 in 0.5 mi Calm Calm - N/A Fog Fog
2:32 AM 42.8 °F - 42.8 °F 100% 30.13 in 0.8 mi Calm Calm - N/A   Clear
2:34 AM 42.8 °F - 42.8 °F 100% 30.13 in 1.0 mi Calm Calm - N/A   Clear
2:35 AM 42.8 °F - 42.8 °F 100% 30.13 in 1.2 mi Calm Calm - N/A   Clear
2:36 AM 42.8 °F - 42.8 °F 100% 30.13 in 1.5 mi Calm Calm - N/A   Clear
2:38 AM 42.8 °F - 42.8 °F 100% 30.13 in 1.2 mi Calm Calm - N/A   Clear
2:39 AM 42.8 °F - 42.8 °F 100% 30.13 in 1.0 mi Calm Calm - N/A   Clear
2:40 AM 42.8 °F - 42.8 °F 100% 30.13 in 0.8 mi Calm Calm - N/A   Clear
2:43 AM 42.8 °F - 42.8 °F 100% 30.12 in 0.5 mi Calm Calm - N/A Fog Fog
2:45 AM 42.8 °F - 42.8 °F 100% 30.12 in 0.5 mi Calm Calm - N/A Fog Fog
2:55 AM 43.3 °F - 43.2 °F 99% 30.12 in 0.5 mi Calm Calm - N/A Fog Fog
3:17 AM 42.8 °F - 42.8 °F 100% 30.12 in 0.5 mi Calm Calm - N/A Fog Fog
3:22 AM 42.8 °F - 42.8 °F 100% 30.12 in 0.8 mi Calm Calm - N/A   Clear
3:24 AM 42.8 °F - 42.8 °F 100% 30.12 in 0.5 mi Calm Calm - N/A Fog Fog
3:27 AM 42.8 °F - 42.8 °F 100% 30.12 in 0.5 mi Calm Calm - N/A Fog Fog
3:32 AM 42.8 °F - 42.8 °F 100% 30.12 in 0.5 mi Calm Calm - N/A Fog Fog
3:49 AM 42.8 °F - 42.8 °F 100% 30.11 in 0.2 mi Calm Calm - N/A Fog Fog
3:55 AM 42.8 °F - 42.4 °F 99% 30.11 in 0.2 mi Calm Calm - N/A Fog Fog
4:00 AM 42.8 °F - 42.8 °F 100% 30.11 in 0.5 mi Calm Calm - N/A Fog Fog
4:30 AM 42.8 °F - 42.8 °F 100% 30.10 in 0.5 mi Calm Calm - N/A Fog Fog
4:34 AM 42.8 °F - 41.0 °F 93% 30.10 in 0.8 mi Calm Calm - N/A   Clear
4:41 AM 42.8 °F - 41.0 °F 93% 30.10 in 0.5 mi Calm Calm - N/A Fog Fog
4:42 AM 42.8 °F - 41.0 °F 93% 30.10 in 0.5 mi Calm Calm - N/A Fog Fog
4:43 AM 42.8 °F - 41.0 °F 93% 30.10 in 0.8 mi Calm Calm - N/A   Mist
4:49 AM 42.8 °F - 41.0 °F 93% 30.10 in 1.0 mi Calm Calm - N/A   Mist
4:55 AM 41.7 °F - 41.5 °F 99% 30.10 in 0.8 mi Calm Calm - N/A   Mist
5:01 AM 42.8 °F - 41.0 °F 93% 30.10 in 0.5 mi Calm Calm - N/A Fog Fog
5:02 AM 42.8 °F - 41.0 °F 93% 30.10 in 0.5 mi Calm Calm - N/A Fog Fog
5:05 AM 42.8 °F - 41.0 °F 93% 30.10 in 0.8 mi Calm Calm - N/A   Mist
5:12 AM 42.8 °F - 42.8 °F 100% 30.10 in 1.0 mi Calm Calm - N/A   Clear
5:15 AM 42.8 °F - 42.8 °F 100% 30.10 in 1.2 mi Calm Calm - N/A   Clear
5:17 AM 42.8 °F - 42.8 °F 100% 30.10 in 1.5 mi Calm Calm - N/A   Clear
5:18 AM 42.8 °F - 42.8 °F 100% 30.10 in 1.8 mi Calm Calm - N/A   Clear
5:19 AM 42.8 °F - 42.8 °F 100% 30.10 in 2.0 mi Calm Calm - N/A   Clear
5:21 AM 42.8 °F - 42.8 °F 100% 30.10 in 3.0 mi Calm Calm - N/A   Clear
5:34 AM 41.0 °F - 41.0 °F 100% 30.11 in 5.0 mi Calm Calm - N/A   Partly Cloudy
5:39 AM 41.0 °F - 41.0 °F 100% 30.11 in 2.5 mi Calm Calm - N/A   Scattered Clouds
5:40 AM 41.0 °F - 41.0 °F 100% 30.11 in 1.8 mi Calm Calm - N/A   Scattered Clouds
5:41 AM 41.0 °F - 41.0 °F 100% 30.11 in 1.5 mi Calm Calm - N/A   Scattered Clouds
5:42 AM 41.0 °F - 41.0 °F 100% 30.11 in 1.2 mi Calm Calm - N/A   Scattered Clouds
5:43 AM 41.0 °F - 41.0 °F 100% 30.11 in 1.0 mi Calm Calm - N/A   Mist
5:46 AM 41.0 °F - 41.0 °F 100% 30.11 in 0.8 mi Calm Calm - N/A   Mist
5:47 AM 41.0 °F - 41.0 °F 100% 30.11 in 0.8 mi Calm Calm - N/A   Mist
5:51 AM 41.0 °F - 41.0 °F 100% 30.11 in 1.0 mi Calm Calm - N/A   Mist
5:55 AM 41.7 °F 39.8 °F 41.4 °F 99% 30.11 in 1.0 mi NNW 3.5 mph - N/A   Mist
5:56 AM 41.0 °F 38.0 °F 41.0 °F 100% 30.11 in 0.8 mi NW 4.6 mph - N/A   Mist
6:00 AM 41.0 °F 37.1 °F 41.0 °F 100% 30.11 in 0.5 mi NNW 5.8 mph - N/A Fog Fog
6:02 AM 41.0 °F 37.1 °F 41.0 °F 100% 30.11 in 0.5 mi NNW 5.8 mph - N/A Fog Fog
6:04 AM 41.0 °F 38.0 °F 41.0 °F 100% 30.11 in 0.5 mi NNW 4.6 mph - N/A Fog Fog
6:05 AM 41.0 °F 38.0 °F 41.0 °F 100% 30.11 in 0.5 mi NNW 4.6 mph - N/A Fog Fog
6:08 AM 41.0 °F 38.0 °F 41.0 °F 100% 30.11 in 0.8 mi NW 4.6 mph - N/A   Scattered Clouds
6:13 AM 41.0 °F 39.0 °F 41.0 °F 100% 30.11 in 1.0 mi NW 3.5 mph - N/A   Scattered Clouds
6:17 AM 41.0 °F 38.0 °F 41.0 °F 100% 30.11 in 0.8 mi NW 4.6 mph - N/A   Scattered Clouds
6:24 AM 41.0 °F 38.0 °F 41.0 °F 100% 30.11 in 1.0 mi NNW 4.6 mph - N/A   Scattered Clouds
6:27 AM 41.0 °F 39.0 °F 41.0 °F 100% 30.11 in 1.2 mi NNW 3.5 mph - N/A   Scattered Clouds
6:29 AM 41.0 °F 39.0 °F 41.0 °F 100% 30.12 in 1.5 mi NNW 3.5 mph - N/A   Scattered Clouds
6:30 AM 41.0 °F 39.0 °F 41.0 °F 100% 30.12 in 1.8 mi NNW 3.5 mph - N/A   Partly Cloudy
6:31 AM 41.0 °F 39.0 °F 41.0 °F 100% 30.12 in 2.0 mi NNW 3.5 mph - N/A   Partly Cloudy
6:55 AM 42.6 °F - 42.4 °F 99% 30.12 in 10.0 mi Calm Calm - N/A   Mostly Cloudy
7:55 AM 45.9 °F - 45.9 °F 100% 30.13 in 10.0 mi Calm Calm - N/A   Mostly Cloudy
8:51 AM 48.2 °F - 48.2 °F 100% 30.15 in 10.0 mi SW 3.5 mph - N/A   Mostly Cloudy
8:55 AM 48.6 °F - 48.6 °F 100% 30.15 in 10.0 mi WSW 4.6 mph - N/A   Mostly Cloudy
9:55 AM 53.2 °F - 53.2 °F 100% 30.15 in 10.0 mi Variable 3.5 mph - N/A   Mostly Cloudy
10:55 AM 59.9 °F - 53.6 °F 80% 30.13 in 10.0 mi WSW 8.1 mph - N/A   Scattered Clouds
12:55 PM 71.4 °F - 56.3 °F 59% 30.09 in 10.0 mi West 10.4 mph - N/A   Scattered Clouds
1:55 PM 74.1 °F - 55.6 °F 52% 30.06 in 10.0 mi WSW 9.2 mph - N/A   Partly Cloudy
2:55 PM 75.7 °F - 55.0 °F 49% 30.04 in 10.0 mi WSW 11.5 mph - N/A   Partly Cloudy
3:55 PM 77.0 °F - 52.7 °F 43% 30.03 in 10.0 mi West 13.8 mph 19.6 mph N/A   Partly Cloudy
4:55 PM 75.9 °F - 52.9 °F 45% 30.04 in 10.0 mi WNW 16.1 mph 21.9 mph N/A   Partly Cloudy
5:55 PM 73.8 °F - 53.8 °F 50% 30.04 in 10.0 mi NW 6.9 mph - N/A   Partly Cloudy
6:55 PM 68.2 °F - 54.1 °F 61% 30.06 in 10.0 mi NNW 3.5 mph - N/A   Partly Cloudy
7:55 PM 61.9 °F - 55.8 °F 80% 30.08 in 10.0 mi Calm Calm - N/A   Partly Cloudy
8:55 PM 58.5 °F - 55.8 °F 91% 30.10 in 10.0 mi Calm Calm - N/A   Clear
9:55 PM 56.1 °F - 55.6 °F 98% 30.12 in 10.0 mi Calm Calm - N/A   Clear
10:55 PM 53.6 °F - 52.7 °F 97% 30.13 in 10.0 mi NNW 3.5 mph - N/A   Clear
11:55 PM 56.5 °F - 52.5 °F 87% 30.14 in 10.0 mi Calm Calm - N/A   Clear